Regional Weather Roundup
Issued by NWS Newport/Morehead, NC

Home | Current Version | Previous Version | Text Only | Print | Product List | Glossary On
Versions: 1 2 3 4 5 6 7 8 9 10 11 12 13 14 15 16 17 18 19 20 21 22 23 24 25 26 27 28 29 30 31 32 33 34 35 36 37 38 39 40 41 42 43 44 45 46 47 48 49 50
645
ASUS42 KMHX 231025
RWRMHX
WEATHER ROUNDUP FOR EASTERN NORTH CAROLINA
NATIONAL WEATHER SERVICE NEWPORT/MOREHEAD CITY NC
600 AM EDT MON OCT 23 2017

NOTE: "FAIR" INDICATES FEW OR NO CLOUDS BELOW 12,000 FEET
WITH NO SIGNIFICANT WEATHER AND/OR OBSTRUCTIONS TO VISIBILITY

NCZ015>017-031-032-045>047-102-103-231100-
NORTH COAST

CITY           SKY/WX    TMP DP  RH WIND       PRES   REMARKS
EDENTON        FOG       60  59  97 CALM      30.23F VSB 3/4
ELIZABETH CITY MOCLDY    64  64 100 E3        30.23F
KITTY HAWK     CLOUDY    68  65  89 CALM      30.22F
MANTEO         CLOUDY   N/A N/A N/A SE3       30.24S

$$

NCZ045>047-081-094-103-104-231100-
CENTRAL COAST

CITY           SKY/WX    TMP DP  RH WIND       PRES   REMARKS
FRISCO         MOCLDY    75  65  70 S10       30.22S

$$

NCZ095-097-098-100-101-231100-
SOUTHERN COAST

CITY           SKY/WX    TMP DP  RH WIND       PRES   REMARKS
BEAUFORT       PTCLDY    70  62  76 SE5       30.21S
CEDAR ISLAND   NOT AVBL
JACKSONVILLE   PTCLDY    62  62 100 CALM      30.19S
PINEY ISLAND     N/A    N/A N/A N/A SW3       30.21S
WILMINGTON     MOCLDY    74  65  73 SE9       30.16F


$$

NCZ011>013-027>030-043-044-078>080-089-090>093-098-231100-
COASTAL PLAIN

CITY           SKY/WX    TMP DP  RH WIND       PRES   REMARKS
AHOSKIE        FOG       57  57 100 CALM      30.23S VSB 1/4
CLINTON        MOCLDY    66  64  94 CALM      30.18F
ELIZABETHTOWN  NOT AVBL
GOLDSBORO      MOCLDY    62  60  96 E6        30.18F FOG
GREENVILLE     FOG       57  57 100 CALM      30.22F VSB 1/2
HAVELOCK       PTCLDY    59  58  96 CALM      30.22S
KENANSVILLE    CLOUDY    63  63 100 CALM      30.19F
KINSTON        PTCLDY    60  60  99 CALM      30.21F
NEW BERN       PTCLDY    60  60 100 CALM      30.22S
RICHLANDS      PTCLDY    59  59 100 NE3       30.20S
ROCKY MOUNT    FOG       56  56 100 CALM      30.21F VSB 1
WASHINGTON     PTCLDY    58  57  97 CALM      30.22S
WHITEVILLE     DRIZZLE   69  68  97 E6        30.16S

$$

AMZ130-135-150-152-154-156-158-170-250-252-270-ANZ085-086-088-633-658-670-231100-
MARINE OBSERVATIONS

STATION/POSITION TIME  TEMP    WIND        PRES    WAVE   SWELL
                       AIR SEA DIR/SP/G            HT/PER HT/PER
                 (UTC) (F)     (DEG/KT/KT) (MB)    (FT/S) (FT/S)
CHESAPEAKE LIGHT NOT AVBL
64 E VA BEACH    0950   72 69  150/  8/ 10 1024.7    3/ 8   2/ 8
DUCK             1000   70 70  100/  6/  6 1023.4
2 E DUCK         1000      70                N/A     2/ 9
OREGON INLET     1000   69 72   90/  3/  3 1023.7
13E OREGON INLT  0948      73                N/A     3/ 8   2/ 8
HATTERAS CG      1000   76 73  150/ 10/ 13 1023.1
DIAMOND BUOY     0950   77 81  140/ 12/ 14 1023.3    3/ 9   2/ 9
CAPE LOOKOUT     1000   74     150/  8/  9 1022.7
BEAUFORT LAB     1000   72 72  150/  5/  6 1023.0
30 SE NEW RVR IN 1008   76     160/ 14/ 19 1022.1
30 SE NEW RVR IN NOT AVBL
27 SE WRIGHTSVLE 1008   76 76  150/ 14/ 21 1021.8
5 SE WRIGHTSVLE  1008   75 74  140/ 14/ 21 1021.4
225 S CAPE HAT   0950   76 80  110/ 12/ 14 1022.6    4/ 8   3/ 8
41 SE CHARLESTON 1010   79 79  150/ 19/ 25 1019.2

$$




USA.gov is the U.S. government's official web portal to all federal, state and local government web resources and services.